DW5893 Weather Reports


time (UTC)temp
C
wind
direction
speed
KPH
gust
KPH
rain 1hr
cm
rain 24hr
cm
rain mn
cm
humidity
%
barometer
mb
20260504034653 14 360 11.3 0.0 0.00 0.00 0.00 42 995.0
20260504034052 15 360 14.5 0.0 0.00 0.00 0.00 41 994.8
20260504033552 15 360 17.7 0.0 0.00 0.00 0.00 40 994.7
20260504033052 15 360 19.3 0.0 0.00 0.00 0.00 40 994.5
20260504032552 15 360 20.9 0.0 0.00 0.00 0.00 39 994.4
20260504032052 15 360 25.7 0.0 0.00 0.00 0.00 39 994.3
20260504031620 16 360 29.0 0.0 0.00 0.00 0.00 38 994.0
20260504031052 16 360 29.0 0.0 0.00 0.00 0.00 38 994.0
20260504030553 16 360 32.2 0.0 0.00 0.00 0.00 38 993.9
20260504030052 16 360 37.0 0.0 0.00 0.00 0.00 36 993.8
20260504025552 17 360 32.2 0.0 0.00 0.00 0.00 35 993.6
20260504025056 19 360 19.3 0.0 0.00 0.00 0.00 33 993.0
20260504024553 20 360 16.1 0.0 0.00 0.00 0.00 33 992.5
20260504024052 20 360 17.7 0.0 0.00 0.00 0.00 33 992.4
20260504023552 20 360 19.3 0.0 0.00 0.00 0.00 33 992.4
20260504023052 20 360 17.7 0.0 0.00 0.00 0.00 33 992.4
20260504022552 20 360 17.7 0.0 0.00 0.00 0.00 33 992.3
20260504022052 20 360 16.1 0.0 0.00 0.00 0.00 33 992.3
20260504021600 20 360 17.7 0.0 0.00 0.00 0.00 33 992.2
20260504021051 20 360 17.7 0.0 0.00 0.00 0.00 33 992.2
20260504020551 20 360 19.3 0.0 0.00 0.00 0.00 33 992.1
20260504020051 20 360 20.9 0.0 0.00 0.00 0.00 32 992.1
20260504015550 20 360 22.5 0.0 0.00 0.00 0.00 32 992.1
20260504015051 21 360 24.1 0.0 0.00 0.00 0.00 31 992.1
20260504014551 21 360 24.1 0.0 0.00 0.00 0.00 31 992.1
20260504014050 21 360 25.7 0.0 0.00 0.00 0.00 31 992.2
20260504013549 21 360 22.5 0.0 0.00 0.00 0.00 31 992.1
20260504013055 21 360 22.5 0.0 0.00 0.00 0.00 30 992.1
20260504012550 22 360 24.1 0.0 0.00 0.00 0.00 30 992.1
20260504012049 22 360 24.1 0.0 0.00 0.00 0.00 29 992.1
20260504011554 22 360 25.7 0.0 0.00 0.00 0.00 26 992.0
20260504011050 22 360 25.7 0.0 0.00 0.00 0.00 25 992.0
20260504010550 23 360 25.7 0.0 0.00 0.00 0.00 23 992.0
20260504010057 23 360 25.7 0.0 0.00 0.00 0.00 23 992.1
20260504005551 23 360 25.7 0.0 0.00 0.00 0.00 22 992.1
20260504005051 23 360 22.5 0.0 0.00 0.00 0.00 23 992.1
20260504004554 23 360 19.3 0.0 0.00 0.00 0.00 24 992.1
20260504004050 23 360 19.3 0.0 0.00 0.00 0.00 24 992.0
20260504003548 23 360 17.7 0.0 0.00 0.00 0.00 24 992.2
20260504003049 23 360 16.1 0.0 0.00 0.00 0.00 24 992.2
20260504002548 23 360 17.7 0.0 0.00 0.00 0.00 23 992.3
20260504002047 23 360 22.5 0.0 0.00 0.00 0.00 23 992.3
20260504001605 24 360 24.1 0.0 0.00 0.00 0.00 22 992.5
20260504001048 24 360 24.1 0.0 0.00 0.00 0.00 22 992.5
20260504000546 23 360 27.4 0.0 0.00 0.00 0.00 22 992.6
20260504000047 23 360 29.0 0.0 0.00 0.00 0.00 22 992.6
20260503235545 24 360 25.7 0.0 0.00 0.00 0.00 21 992.7
20260503235047 24 360 25.7 0.0 0.00 0.00 0.00 21 992.7
20260503234545 24 360 24.1 0.0 0.00 0.00 0.00 22 992.8
20260503234044 24 360 20.9 0.0 0.00 0.00 0.00 23 992.8
20260503233544 24 360 22.5 0.0 0.00 0.00 0.00 23 992.9
20260503233044 24 360 22.5 0.0 0.00 0.00 0.00 24 992.9
20260503232543 24 360 20.9 0.0 0.00 0.00 0.00 24 993.0
20260503232042 25 360 19.3 0.0 0.00 0.00 0.00 24 993.1
20260503231548 24 360 17.7 0.0 0.00 0.00 0.00 25 993.3
20260503231041 24 360 17.7 0.0 0.00 0.00 0.00 25 993.3
20260503230543 24 360 17.7 0.0 0.00 0.00 0.00 25 993.5
20260503230039 24 360 19.3 0.0 0.00 0.00 0.00 25 993.5
20260503225538 24 360 19.3 0.0 0.00 0.00 0.00 25 993.7
20260503225037 23 360 17.7 0.0 0.00 0.00 0.00 26 993.9
20260503224536 23 360 17.7 0.0 0.00 0.00 0.00 26 994.0
20260503224036 23 360 17.7 0.0 0.00 0.00 0.00 24 994.2
20260503223535 23 360 17.7 0.0 0.00 0.00 0.00 24 994.2
20260503223038 23 360 19.3 0.0 0.00 0.00 0.00 23 994.3
20260503222533 23 360 17.7 0.0 0.00 0.00 0.00 24 994.5
20260503222033 23 360 19.3 0.0 0.00 0.00 0.00 24 994.5
20260503221535 24 360 19.3 0.0 0.00 0.00 0.00 22 994.8
20260503221036 24 360 17.7 0.0 0.00 0.00 0.00 23 994.8
20260503220536 23 360 17.7 0.0 0.00 0.00 0.00 23 994.9
20260503220037 23 360 17.7 0.0 0.00 0.00 0.00 23 995.1
20260503215531 23 360 17.7 0.0 0.00 0.00 0.00 23 995.1
20260503215029 23 360 17.7 0.0 0.00 0.00 0.00 24 995.3
20260503214530 23 360 16.1 0.0 0.00 0.00 0.00 23 995.4
20260503214028 23 360 14.5 0.0 0.00 0.00 0.00 25 995.6
20260503213528 22 360 17.7 0.0 0.00 0.00 0.00 29 995.6
20260503213046 23 360 17.7 0.0 0.00 0.00 0.00 27 995.8
20260503212525 23 360 16.1 0.0 0.00 0.00 0.00 28 995.9
20260503212026 22 360 16.1 0.0 0.00 0.00 0.00 27 996.0
20260503211526 22 360 16.1 0.0 0.00 0.00 0.00 29 996.2
20260503211028 22 360 14.5 0.0 0.00 0.00 0.00 29 996.2
20260503210523 22 360 16.1 0.0 0.00 0.00 0.00 29 996.3
20260503210023 22 360 17.7 0.0 0.00 0.00 0.00 29 996.3
20260503205523 22 360 16.1 0.0 0.00 0.00 0.00 29 996.4
20260503205024 22 360 17.7 0.0 0.00 0.00 0.00 28 996.5
20260503204524 22 360 17.7 0.0 0.00 0.00 0.00 27 996.6
20260503204020 22 360 17.7 0.0 0.00 0.00 0.00 27 996.8
20260503203520 22 360 17.7 0.0 0.00 0.00 0.00 25 996.8
20260503203023 22 360 16.1 0.0 0.00 0.00 0.00 26 996.9
20260503202520 22 360 17.7 0.0 0.00 0.00 0.00 25 997.0
20260503202019 23 360 17.7 0.0 0.00 0.00 0.00 25 997.0
20260503201524 22 360 19.3 0.0 0.00 0.00 0.00 27 997.0
20260503201019 23 360 20.9 0.0 0.00 0.00 0.00 27 997.0
20260503200519 23 360 19.3 0.0 0.00 0.00 0.00 27 997.1
20260503200018 23 360 19.3 0.0 0.00 0.00 0.00 26 997.2
20260503195516 22 360 20.9 0.0 0.00 0.00 0.00 27 997.3
20260503195016 23 360 22.5 0.0 0.00 0.00 0.00 28 997.3
20260503194521 23 360 20.9 0.0 0.00 0.00 0.00 28 997.7
20260503194014 22 360 19.3 0.0 0.00 0.00 0.00 29 997.7
20260503193514 22 360 19.3 0.0 0.00 0.00 0.00 28 997.9
20260503193012 22 360 20.9 0.0 0.00 0.00 0.00 27 998.1
20260503192512 23 360 19.3 0.0 0.00 0.00 0.00 26 998.2
20260503192010 22 360 17.7 0.0 0.00 0.00 0.00 30 998.3
20260503191510 22 360 20.9 0.0 0.00 0.00 0.00 30 998.5
20260503191013 22 360 19.3 0.0 0.00 0.00 0.00 30 998.4
20260503190510 22 360 20.9 0.0 0.00 0.00 0.00 30 998.6
20260503190008 22 360 22.5 0.0 0.00 0.00 0.00 31 998.8
20260503185513 22 360 20.9 0.0 0.00 0.00 0.00 31 998.8
20260503185008 22 360 19.3 0.0 0.00 0.00 0.00 31 999.1
20260503184508 22 360 17.7 0.0 0.00 0.00 0.00 31 999.1
20260503184006 22 360 17.7 0.0 0.00 0.00 0.00 31 999.3
20260503183504 21 360 17.7 0.0 0.00 0.00 0.00 30 999.6
20260503183004 21 360 19.3 0.0 0.00 0.00 0.00 30 999.7
20260503182507 22 360 19.3 0.0 0.00 0.00 0.00 30 999.8
20260503182004 21 360 17.7 0.0 0.00 0.00 0.00 32 999.9
20260503181501 21 360 19.3 0.0 0.00 0.00 0.00 34 1000.1
20260503180559 21 360 20.9 0.0 0.00 0.00 0.00 34 1000.2
20260503180058 21 360 20.9 0.0 0.00 0.00 0.00 31 1000.4
20260503175558 21 360 19.3 0.0 0.00 0.00 0.00 32 1000.3
20260503175057 21 360 20.9 0.0 0.00 0.00 0.00 32 1000.4
20260503174610 21 360 19.3 0.0 0.00 0.00 0.00 33 1000.5
20260503174057 21 360 19.3 0.0 0.00 0.00 0.00 32 1000.5
20260503173556 21 360 19.3 0.0 0.00 0.00 0.00 31 1000.6
20260503173125 21 360 19.3 0.0 0.00 0.00 0.00 32 1000.8
20260503172554 21 360 19.3 0.0 0.00 0.00 0.00 32 1000.9
20260503172055 20 360 19.3 0.0 0.00 0.00 0.00 32 1000.9
20260503171551 20 360 19.3 0.0 0.00 0.00 0.00 33 1001.2
20260503170552 20 360 17.7 0.0 0.00 0.00 0.00 34 1001.2
20260503150535 17 360 17.7 0.0 0.00 0.00 0.00 37 1003.4
20260503130506 8 360 1.6 0.0 0.00 0.00 0.00 57 1004.4
20260503110546 1 360 1.6 0.0 0.00 0.00 0.00 69 1005.1
20260503081548 0 360 0.0 0.0 0.00 0.00 0.00 72 1005.9
20260503080534 0 360 0.0 0.0 0.00 0.00 0.00 68 1005.9
20260503072532 0 360 0.0 0.0 0.00 0.00 0.00 70 1006.0
20260503072030 0 360 0.0 0.0 0.00 0.00 0.00 70 1006.0
20260503071553 0 360 0.0 0.0 0.00 0.00 0.00 69 1006.0
20260503070534 1 360 0.0 0.0 0.00 0.00 0.00 69 1006.0
20260503055024 1 360 0.0 0.0 0.00 0.00 0.00 67 1006.1
20260503054533 1 360 0.0 0.0 0.00 0.00 0.00 67 1006.0
20260503054024 1 360 0.0 0.0 0.00 0.00 0.00 68 1006.0
20260503053524 1 360 0.0 0.0 0.00 0.00 0.00 68 1006.0
20260503053023 1 360 0.0 0.0 0.00 0.00 0.00 67 1006.0
20260503052523 1 360 0.0 0.0 0.00 0.00 0.00 67 1005.9
20260503052023 1 360 0.0 0.0 0.00 0.00 0.00 66 1006.0
20260503051529 1 360 0.0 0.0 0.00 0.00 0.00 66 1006.0
20260503050521 1 360 0.0 0.0 0.00 0.00 0.00 65 1006.0
20260503050021 1 360 1.6 0.0 0.00 0.00 0.00 65 1006.1
20260503045520 2 360 1.6 0.0 0.00 0.00 0.00 64 1006.1
20260503045019 2 360 1.6 0.0 0.00 0.00 0.00 64 1006.1
20260503044518 2 360 1.6 0.0 0.00 0.00 0.00 63 1006.1
20260503044016 2 360 1.6 0.0 0.00 0.00 0.00 63 1006.2
20260503043516 2 360 1.6 0.0 0.00 0.00 0.00 63 1006.2
20260503043021 2 360 3.2 0.0 0.00 0.00 0.00 62 1006.2
20260503042515 2 360 3.2 0.0 0.00 0.00 0.00 61 1006.2
20260503042014 2 360 1.6 0.0 0.00 0.00 0.00 60 1006.2
20260503041519 3 360 0.0 0.0 0.00 0.00 0.00 60 1006.2
20260503040510 3 360 0.0 0.0 0.00 0.00 0.00 58 1006.2
20260503040015 3 360 0.0 0.0 0.00 0.00 0.00 57 1006.2
20260503035510 3 360 0.0 0.0 0.00 0.00 0.00 57 1006.2
20260503035008 4 360 0.0 0.0 0.00 0.00 0.00 55 1006.2